EW4312 Weather Reports


time (UTC)temp
C
wind
direction
speed
KPH
gust
KPH
rain 1hr
cm
rain 24hr
cm
rain mn
cm
humidity
%
barometer
mb
20260504214557 25 71 0.0 14.5 0.00 0.00 0.00 31 1007.4
20260504213111 25 0 0.0 14.5 0.00 0.00 0.00 32 1007.5
20260504211554 25 101 0.0 9.7 0.00 0.00 0.00 31 1007.6
20260504210104 25 0 0.0 16.1 0.00 0.00 0.00 33 1007.7
20260504204602 25 264 0.0 6.4 0.00 0.00 0.00 35 1007.7
20260504203053 25 36 0.0 9.7 0.00 0.00 0.00 36 1007.7
20260504201559 24 0 0.0 11.3 0.00 0.00 0.00 36 1007.7
20260504200055 24 0 4.8 12.9 0.00 0.00 0.00 31 1007.8
20260504194557 23 273 1.6 11.3 0.00 0.00 0.00 36 1008.0
20260504193112 23 0 0.0 9.7 0.00 0.00 0.00 35 1008.0
20260504191559 23 128 3.2 14.5 0.00 0.00 0.00 35 1008.1
20260504190107 23 0 0.0 14.5 0.00 0.00 0.00 36 1008.3
20260504184556 23 98 1.6 16.1 0.00 0.00 0.00 36 1008.5
20260504183102 22 49 4.8 14.5 0.00 0.00 0.00 38 1008.4
20260504181559 22 74 4.8 14.5 0.00 0.00 0.00 40 1008.4
20260504180138 22 0 0.0 11.3 0.00 0.00 0.00 41 1008.5
20260504174555 21 0 0.0 9.7 0.00 0.00 0.00 43 1008.6
20260504173058 20 0 0.0 6.4 0.00 0.00 0.00 45 1008.6
20260504171558 20 0 0.0 0.0 0.00 0.00 0.00 47 1008.6
20260504120109 6 0 0.0 0.0 0.00 0.00 0.00 88 1007.9
20260504100114 8 0 0.0 0.0 0.00 0.00 0.00 80 1007.8
20260504081553 10 0 0.0 0.0 0.00 0.00 0.00 74 1007.4
20260504060108 13 0 0.0 0.0 0.00 0.00 0.00 66 1007.9
20260504050105 14 0 0.0 0.0 0.00 0.00 0.00 60 1008.1
20260504044556 15 0 0.0 0.0 0.00 0.00 0.00 59 1008.0
20260504043101 15 0 0.0 0.0 0.00 0.00 0.00 59 1008.0
20260504041557 16 0 0.0 0.0 0.00 0.00 0.00 56 1008.0
20260504040103 16 0 0.0 0.0 0.00 0.00 0.00 56 1007.9
20260504034615 17 0 0.0 0.0 0.00 0.00 0.00 51 1007.8
20260504033058 18 0 0.0 0.0 0.00 0.00 0.00 49 1007.6
20260504031603 20 0 0.0 0.0 0.00 0.00 0.00 45 1007.6
20260504030054 21 0 0.0 0.0 0.00 0.00 0.00 41 1007.6
20260504024558 23 0 0.0 0.0 0.00 0.00 0.00 37 1007.6
20260504023059 25 0 0.0 0.0 0.00 0.00 0.00 32 1007.6
20260504021600 26 0 0.0 0.0 0.00 0.00 0.00 28 1007.8
20260504020119 26 0 0.0 1.6 0.00 0.00 0.00 27 1007.8
20260504014557 26 0 0.0 11.3 0.00 0.00 0.00 26 1008.1
20260504013051 26 0 0.0 3.2 0.00 0.00 0.00 26 1008.2
20260504011556 26 0 3.2 6.4 0.00 0.00 0.00 26 1008.3
20260504010054 26 232 0.0 9.7 0.00 0.00 0.00 26 1008.5
20260504004612 26 0 0.0 8.0 0.00 0.00 0.00 26 1008.6
20260504003054 26 239 0.0 14.5 0.00 0.00 0.00 26 1008.6
20260504001556 26 0 0.0 4.8 0.00 0.00 0.00 25 1008.8
20260504000101 26 254 1.6 6.4 0.00 0.00 0.00 24 1009.0
20260503234554 26 0 0.0 11.3 0.00 0.00 0.00 27 1009.1
20260503233053 26 0 1.6 14.5 0.00 0.00 0.00 24 1009.3
20260503231553 26 252 4.8 14.5 0.00 0.00 0.00 25 1009.2
20260503230103 26 299 3.2 8.0 0.00 0.00 0.00 25 1009.5
20260503224558 26 276 1.6 8.0 0.00 0.00 0.00 26 1009.7
20260503223051 26 188 1.6 8.0 0.00 0.00 0.00 26 1010.1
20260503221551 26 273 3.2 12.9 0.00 0.00 0.00 26 1010.1
20260503220058 26 294 0.0 16.1 0.00 0.00 0.00 26 1010.3